Location: Waco, TX
(31.5480°N, 97.1670°W)
Time: 15:20:33
(UTC-05:00)

ISS - Pass Details

Date: 17 March 2018
Orbit: 403 x 408 km, 51.6° (Epoch: 23 September)

Event Time Altitude Azimuth Distance (km) Brightness Sun altitude
Rises 06:09:03 0° 332° (NNW) 2,357 - -19.3°
Exits shadow 06:10:40 - 343° (NNW) 1,813 -0.6 -19.0°
Reaches altitude 10° 06:11:50 10° 356° (N) 1,486 -0.9 -18.7°
Drops below altitude 10° 06:15:51 10° 71° (ENE) 1,476 0.3 -17.9°
Enters shadow 07:11:38 -72° 308° (NW) 12,578 3.6 -6.1°
Maximum altitude 07:50:41 45° 229° (SW) 567 -3.3 2.3°
Sets 07:55:57 0° 149° (SSE) 2,313 0.6 3.4°
